| time (UTC) | temp C | wind direction | speed KPH | gust KPH | rain 1hr cm | rain 24hr cm | rain mn cm | humidity % | barometer mb |
| 20260903015403 | 31 | 90 | 3.2 | 3.2 | 0.00 | 0.00 | 0.00 | 55 | 1008.1 |
| 20260903013702 | 31 | 158 | 3.2 | 4.8 | 0.00 | 0.00 | 0.00 | 55 | 1007.8 |
| 20260903000403 | 33 | 203 | 3.2 | 3.2 | 0.00 | 0.00 | 0.00 | 50 | 1007.8 |
| 20260902235305 | 34 | 225 | 6.4 | 9.7 | 0.00 | 0.00 | 0.00 | 50 | 1007.8 |
| 20260902234103 | 35 | 225 | 4.8 | 4.8 | 0.00 | 0.00 | 0.00 | 50 | 1007.8 |
| 20260902233003 | 35 | 113 | 6.4 | 9.7 | 0.00 | 0.00 | 0.00 | 49 | 1008.1 |
| 20260902231902 | 35 | 45 | 4.8 | 8.0 | 0.00 | 0.00 | 0.00 | 48 | 1008.1 |
| 20260902230804 | 35 | 203 | 11.3 | 11.3 | 0.00 | 0.00 | 0.00 | 48 | 1007.8 |
| 20260902174002 | 32 | 203 | 3.2 | 6.4 | 0.00 | 0.00 | 0.00 | 55 | 1009.8 |
| 20260902172902 | 31 | 113 | 12.9 | 12.9 | 0.00 | 0.00 | 0.00 | 55 | 1009.8 |
| 20260902171202 | 31 | 135 | 6.4 | 6.4 | 0.00 | 0.00 | 0.00 | 55 | 1009.8 |
| 20260902170004 | 30 | 158 | 4.8 | 4.8 | 0.00 | 0.00 | 0.00 | 55 | 1010.2 |
| 20260902124002 | 23 | 158 | 0.0 | 0.0 | 0.00 | 0.00 | 0.00 | 79 | 1010.5 |
| 20260902122102 | 22 | 158 | 1.6 | 1.6 | 0.00 | 0.00 | 0.00 | 80 | 1010.5 |
| 20260902115503 | 22 | 158 | 3.2 | 3.2 | 0.00 | 0.00 | 0.00 | 81 | 1010.5 |
| 20260902112002 | 22 | 180 | 0.0 | 0.0 | 0.00 | 0.00 | 0.00 | 83 | 1010.2 |
| 20260902105702 | 22 | 248 | 1.6 | 6.4 | 0.00 | 0.00 | 0.00 | 83 | 1010.5 |
| 20260902104602 | 22 | 225 | 3.2 | 4.8 | 0.00 | 0.00 | 0.00 | 83 | 1010.5 |
| 20260902103502 | 22 | 248 | 0.0 | 3.2 | 0.00 | 0.00 | 0.00 | 83 | 1010.5 |
| 20260902102403 | 22 | 270 | 1.6 | 1.6 | 0.00 | 0.00 | 0.00 | 81 | 1010.2 |
| 20260902101302 | 22 | 270 | 0.0 | 0.0 | 0.00 | 0.00 | 0.00 | 81 | 1010.8 |
| 20260902100003 | 22 | 270 | 0.0 | 0.0 | 0.00 | 0.00 | 0.00 | 81 | 1010.5 |
| 20260902094802 | 22 | 248 | 0.0 | 0.0 | 0.00 | 0.00 | 0.00 | 81 | 1010.8 |
| 20260902093701 | 23 | 248 | 0.0 | 0.0 | 0.00 | 0.00 | 0.00 | 81 | 1010.8 |
| 20260902092602 | 23 | 180 | 0.0 | 0.0 | 0.00 | 0.00 | 0.00 | 81 | 1010.5 |
| 20260902091402 | 23 | 225 | 3.2 | 3.2 | 0.00 | 0.00 | 0.00 | 79 | 1010.5 |
| 20260902090302 | 23 | 248 | 1.6 | 1.6 | 0.00 | 0.00 | 0.00 | 75 | 1010.5 |
| 20260902084103 | 25 | 158 | 0.0 | 1.6 | 0.00 | 0.00 | 0.00 | 73 | 1010.8 |
| 20260902083003 | 25 | 113 | 3.2 | 3.2 | 0.00 | 0.00 | 0.00 | 70 | 1011.2 |
| 20260902081902 | 25 | 158 | 1.6 | 1.6 | 0.00 | 0.00 | 0.00 | 70 | 1010.8 |
| 20260902080802 | 25 | 158 | 1.6 | 4.8 | 0.00 | 0.00 | 0.00 | 69 | 1010.8 |
| 20260902075702 | 26 | 180 | 4.8 | 4.8 | 0.00 | 0.00 | 0.00 | 65 | 1011.2 |
| 20260902073503 | 26 | 90 | 3.2 | 4.8 | 0.00 | 0.00 | 0.00 | 61 | 1009.8 |
| 20260902072502 | 26 | 270 | 1.6 | 4.8 | 0.00 | 0.00 | 0.00 | 61 | 1009.8 |
| 20260902071402 | 26 | 113 | 3.2 | 4.8 | 0.00 | 0.00 | 0.00 | 61 | 1009.8 |
| 20260902063902 | 26 | 90 | 6.4 | 6.4 | 0.00 | 0.00 | 0.00 | 61 | 1010.2 |
| 20260902062902 | 26 | 90 | 6.4 | 6.4 | 0.00 | 0.00 | 0.00 | 61 | 1009.8 |
| 20260902061802 | 27 | 270 | 3.2 | 3.2 | 0.00 | 0.00 | 0.00 | 61 | 1009.5 |
| 20260902060702 | 27 | 113 | 4.8 | 6.4 | 0.00 | 0.00 | 0.00 | 61 | 1009.8 |
| 20260902054502 | 27 | 158 | 8.0 | 8.0 | 0.00 | 0.00 | 0.00 | 61 | 1009.1 |
| 20260902053402 | 27 | 293 | 1.6 | 3.2 | 0.00 | 0.00 | 0.00 | 61 | 1009.5 |
| 20260902052306 | 27 | 180 | 6.4 | 6.4 | 0.00 | 0.00 | 0.00 | 61 | 1009.8 |
| 20260902051102 | 27 | 158 | 3.2 | 6.4 | 0.00 | 0.00 | 0.00 | 61 | 1009.8 |
| 20260902050006 | 27 | 158 | 1.6 | 3.2 | 0.00 | 0.00 | 0.00 | 61 | 1010.2 |
| 20260902045902 | 27 | 158 | 3.2 | 3.2 | 0.00 | 0.00 | 0.00 | 61 | 1010.2 |
| 20260902044702 | 27 | 113 | 9.7 | 9.7 | 0.00 | 0.00 | 0.00 | 61 | 1009.8 |